#timestamp,LO_Frequency,Hit,StdDev 
1547550015.8,286046998.3,N
1547550035.6,286046999.0,N
1547550055.5,286046999.6,N
1547550075.3,286046996.9,N
1547550095.2,286046997.1,N
1547550115.9,286046998.8,N
1547550135.7,286046997.4,N
1547550155.6,286046999.2,N
1547550175.4,286046999.1,N
1547550195.2,286046999.1,N
1547550215.1,286046998.7,N
1547550216.0,286046998.7,N
1547550235.8,286047000.3,N
1547550255.7,286047001.0,N
1547550275.5,286046999.9,N
1547550295.3,286047000.5,N
1547550315.2,286046998.6,N
1547550335.0,286046999.0,N
1547550335.9,286046999.0,N
1547550355.8,286046998.1,N
1547550375.6,286047000.9,N
1547550395.4,286046999.4,N
1547550415.3,286046999.6,N
1547550435.1,286046998.5,N
1547550455.8,286046998.2,N
1547550475.7,286047000.1,N
1547550495.5,286046999.8,N
1547550515.4,286047000.9,N
1547550535.2,286046999.3,N
1547550555.0,286046996.9,Y
1547550556.0,286046996.9,P
1547550575.8,286046996.7,P
1547550595.6,286046996.7,P
1547550615.5,286046997.0,N
1547550635.3,286046996.9,Y
1547550655.1,286047000.7,P
1547550675.9,286047002.3,N
1547550695.2,286047002.3,N
1547550715.1,286047004.4,N
1547550716.0,286047004.4,N
1547550735.8,286047004.0,N
1547550755.6,286047001.5,N
1547550775.5,286047001.7,N
1547550795.3,286047002.4,N
1547550815.2,286047001.4,N
1547550835.9,286047001.4,N
1547550855.7,286047003.8,N
1547550875.6,286047006.6,Y
1547550895.4,286047003.1,P
1547550915.2,286047004.9,P
1547550935.1,286047004.7,P
1547550936.0,286047004.7,Y
1547550955.8,286047001.6,P
1547550975.7,286047002.3,N
1547550995.5,286047000.4,N
1547551015.3,286047000.7,N
1547551035.2,286046997.0,N
1547551055.0,286046997.9,N
1547551055.9,286046997.9,N
1547551075.8,286046994.9,N
1547551095.6,286046995.0,N
1547551115.4,286046995.4,N
1547551135.3,286046995.2,N
1547551155.1,286046998.0,N
1547551175.8,286046997.5,N
1547551195.6,286046996.8,N
1547551215.5,286046999.5,N
1547551235.3,286046997.1,N
1547551255.1,286046997.4,N
1547551275.9,286046997.6,N
1547551295.7,286046996.9,N
1547551315.5,286047000.8,N
1547551335.4,286046998.7,N
1547551355.2,286046999.6,N
1547551375.1,286047000.8,N
1547551376.0,286047000.8,N
1547551395.8,286047001.0,N
1547551415.6,286046998.5,N
1547551435.5,286047001.2,N
1547551455.3,286047002.7,N
1547551475.1,286047000.7,N
1547551495.9,286046998.2,N
1547551515.7,286046998.6,N
1547551535.6,286046998.3,N
1547551555.4,286046998.5,N
1547551575.2,286047001.4,N
1547551595.1,286047004.3,N
1547551596.0,286047004.3,N
1547551615.8,286047003.1,N
1547551635.6,286047007.2,N
1547551655.5,286047007.2,N
1547551675.3,286047004.6,N
1547551695.2,286047004.0,N
1547551715.9,286047000.0,N
1547551735.7,286047001.2,N
1547551755.6,286047000.7,N
1547551775.4,286047000.2,N
1547551795.2,286047002.6,N
1547551815.1,286047001.7,N
1547551816.0,286047001.7,N
1547551835.8,286047001.5,N
1547551855.6,286047001.9,N
1547551875.5,286047002.1,N
1547551895.2,286047002.5,N
1547551915.3,286047002.5,N
1547551935.1,286047000.0,N
1547551955.9,286047000.6,N
1547551975.7,286046998.5,N
1547551995.0,286046998.7,N
1547551995.9,286046998.7,N
1547552015.8,286047001.0,N
1547552035.6,286047002.6,N
1547552055.4,286047000.7,N
1547552075.3,286046998.7,N
1547552095.1,286047000.6,N
1547552115.9,286047001.1,N
1547552135.7,286047001.1,N
1547552155.5,286047000.4,N
1547552175.4,286046998.7,N
1547552195.2,286046999.1,N
1547552215.0,286046999.4,N
1547552215.9,286046999.4,N
1547552235.8,286047001.2,N
1547552255.6,286046998.3,N
1547552275.5,286047011.9,Y
1547552295.3,286047000.3,P
1547552315.1,286047000.4,N
1547552335.9,286047000.9,P
1547552355.7,286047000.7,N
1547552375.6,286046998.1,Y
1547552395.4,286046999.1,P
1547552415.2,286046996.8,P
1547552435.1,286046998.8,N
1547552436.0,286046998.8,N
1547552455.8,286046998.2,N
1547552475.6,286046998.5,N
1547552495.5,286046999.6,N
1547552515.3,286046997.4,N
1547552535.2,286046995.0,Y
1547552555.9,286047001.2,P
1547552575.7,286046999.9,N
1547552595.6,286047000.6,N
1547552615.4,286047001.1,N
1547552635.3,286046998.9,N
1547552655.1,286047001.2,N
1547552656.0,286047001.2,N
1547552675.8,286047001.0,N
1547552695.7,286047000.0,N
1547552715.5,286047001.0,N
1547552735.3,286047000.9,N
1547552755.2,286047001.0,N
1547552775.0,286046999.7,N
1547552775.9,286046999.7,N
1547552795.8,286047000.2,N
1547552815.6,286046999.7,N
1547552835.4,286046998.1,N
1547552855.3,286046999.3,N
1547552875.1,286047001.4,N
1547552895.8,286047005.8,Y
1547552915.7,286047002.9,P
1547552935.5,286047007.2,P
1547552955.4,286047003.2,N
1547552975.2,286047001.3,N
1547552995.0,286047004.0,N
1547552995.9,286047004.0,N
1547553015.8,286047002.3,N
1547553035.6,286047001.4,N
1547553055.4,286047003.1,N
1547553075.3,286047005.9,Y
1547553095.1,286047001.6,P
1547553115.9,286047005.4,P
1547553135.7,286047007.2,P
1547553155.5,286047006.0,N
1547553175.4,286047006.0,N
1547553195.2,286047005.8,N
1547553215.0,286047004.1,N
1547553216.0,286047004.1,N
1547553235.8,286047003.6,N
1547553255.6,286047001.3,N
1547553275.5,286047001.3,N
1547553295.3,286047002.0,N
1547553315.1,286047002.3,N
1547553335.9,286047000.3,N
1547553355.7,286047001.6,N
1547553375.6,286047004.1,N
1547553395.4,286047004.2,N
1547553415.2,286046999.8,N
1547553435.1,286047000.7,N
1547553436.0,286047000.7,N
1547553455.8,286046999.0,N
1547553475.6,286046999.3,N
1547553495.5,286047002.2,N
1547553515.3,286047000.1,N
1547553535.2,286047000.0,N
1547553555.9,286046998.5,N
1547553575.7,286046998.6,N
1547553595.6,286046999.1,N
